This is the latest recevied weather packets stored in our database for station/object N4AN. If no packets are shown the sender has not sent any weather packets the latest 10 day(s).
| Time | Temp. | Humidity | Pressure | Rain* | Wind** | Luminosity | Snow |
|---|---|---|---|---|---|---|---|
| 1777853326 | 23.33° C | 90% | 1008.9 hPa | 0 mm | - | - | - |
| 1777853026 | 23.33° C | 90% | 1008.8 hPa | 0 mm | - | - | - |
| 1777852726 | 23.33° C | 90% | 1008.7 hPa | 0 mm | - | - | - |
| 1777852426 | 23.89° C | 90% | 1008.7 hPa | 0 mm | - | - | - |
| 1777852125 | 23.89° C | 90% | 1008.6 hPa | 0 mm | - | - | - |
| 1777851825 | 23.89° C | 90% | 1008.6 hPa | 0 mm | - | - | - |
| 1777851525 | 23.89° C | 89% | 1008.5 hPa | 0 mm | - | - | - |
| 1777851224 | 23.89° C | 89% | 1008.7 hPa | 0 mm | - | - | - |
| 1777850622 | 23.89° C | 89% | 1008.6 hPa | 0 mm | - | - | - |
| 1777850321 | 23.89° C | 89% | 1008.6 hPa | 0 mm | - | - | - |
| 1777850016 | 23.89° C | 89% | 1008.5 hPa | 0 mm | - | - | - |
| 1777849716 | 23.89° C | 89% | 1008.3 hPa | 0 mm | - | - | - |
| 1777849416 | 23.89° C | 89% | 1008.4 hPa | 0 mm | - | - | - |
| 1777849115 | 23.89° C | 89% | 1008.4 hPa | 0 mm | - | - | - |
| 1777848815 | 23.89° C | 89% | 1008.2 hPa | 0 mm | - | - | - |
| 1777848515 | 23.89° C | 89% | 1008.4 hPa | 0 mm | - | - | - |
| 1777848215 | 23.89° C | 89% | 1008.4 hPa | 0 mm | - | - | - |
| 1777847914 | 23.89° C | 89% | 1008.4 hPa | 1.02 mm | - | - | - |
| 1777847614 | 23.89° C | 88% | 1008.4 hPa | 1.27 mm | - | - | - |
| 1777847313 | 24.44° C | 88% | 1008.3 hPa | 2.54 mm | - | - | - |
| 1777847013 | 24.44° C | 88% | 1008.4 hPa | 4.06 mm | - | - | - |
| 1777846712 | 24.44° C | 88% | 1008.5 hPa | 12.95 mm | - | - | - |
| 1777846412 | 24.44° C | 88% | 1008.6 hPa | 0 mm | - | - | - |
| 1777846111 | 24.44° C | 88% | 1008.4 hPa | 0 mm | - | - | - |
| 1777845811 | 24.44° C | 88% | 1008.4 hPa | 0 mm | - | - | - |
* Rain latest hour (hover to see other rain measurements)
** Current wind speed in m/s (hover to see current wind gust speed)